Weather History for Chippewa, MI

Change the Weather History Date:

Saturday, January 7, 2012

  Actual Average Record
Temperature  
Mean Temperature 26 °F -  
Max Temperature 33 °F 24 °F 41 °F (2007)
Min Temperature 15 °F 4 °F -22 °F (1979)
Degree Days  
Heating Degree Days 39    
Moisture  
Dew Point 19 °F    
Average Humidity 74    
Maximum Humidity 87    
Minimum Humidity 64    
Precipitation  
Precipitation 0.00 in - - ()
Sea Level Pressure  
Sea Level Pressure 29.84 in    
Wind  
Wind Speed 11 mph (WNW)    
Max Wind Speed 25 mph    
Max Gust Speed 30 mph    
Visibility 8 miles    
Events      
Averages and records for this station are not official NWS values.
T = Trace of Precipitation, MM = Missing Value Source: NWS Daily Summary

Daily Weather History Graph

Daily Weather History Graph

Search for Another Location

Airport:

Trip Planner

Search our weather history database for the weather conditions in past years. The results will help you decide how hot, cold, wet, or windy it might be!

Date:

Astronomy

Jan. 07, 2012 Rise Set
Actual Time 8:20 AM EST 5:08 PM EST
Civil Twilight 7:45 AM EST 5:42 PM EST
Nautical Twilight 7:08 AM EST 6:20 PM EST
Astronomical Twilight 6:31 AM EST 6:56 PM EST
Moon 3:50 PM EST (1/7) 6:52 AM EST (1/7)
Length of Visible Light 9h 56m
Length of Day
8h 47m
Waxing Gibbous, 97% of the Moon is Illuminated
Jan 7
Waxing Gibbous
Jan 9
Full
Jan 16
Last Quarter
Jan 23
New
Jan 30
First Quarter

Hourly Weather History & Observations

Time (EST) Temp. Windchill Dew Point Humidity Pressure Visibility Wind Dir Wind Speed Gust Speed Precip Events Conditions
12:15 AM 35.6 °F 31.7 °F 28.4 °F 75% 29.58 in 10.0 mi SW 4.6 mph - N/A   Overcast
12:55 AM 32.0 °F 28.7 °F 26.6 °F 80% 29.58 in 10.0 mi SW 3.5 mph - N/A   Mostly Cloudy
1:15 AM 32.0 °F 26.4 °F 26.6 °F 80% 29.58 in 10.0 mi SW 5.8 mph - N/A   Overcast
1:35 AM 33.8 °F 29.6 °F 26.6 °F 75% 29.58 in 10.0 mi SW 4.6 mph - N/A   Overcast
1:55 AM 33.8 °F 28.6 °F 26.6 °F 75% 29.58 in 10.0 mi SW 5.8 mph - N/A   Overcast
2:15 AM 33.8 °F 27.7 °F 26.6 °F 75% 29.58 in 10.0 mi SW 6.9 mph - N/A   Overcast
2:35 AM 32.0 °F 26.4 °F 24.8 °F 75% 29.59 in 10.0 mi WSW 5.8 mph - N/A   Mostly Cloudy
2:55 AM 33.8 °F 29.6 °F 24.8 °F 70% 29.59 in 10.0 mi SW 4.6 mph - N/A   Overcast
3:15 AM 33.8 °F 27.0 °F 24.8 °F 70% 29.60 in 10.0 mi West 8.1 mph - N/A   Overcast
3:35 AM 33.8 °F 25.8 °F 26.6 °F 75% 29.60 in 10.0 mi West 10.4 mph 16.1 mph N/A   Overcast
3:55 AM 33.8 °F 27.0 °F 26.6 °F 75% 29.60 in 10.0 mi West 8.1 mph - N/A   Overcast
4:15 AM 33.8 °F 26.4 °F 26.6 °F 75% 29.60 in 10.0 mi West 9.2 mph - N/A   Overcast
4:55 AM 33.8 °F 25.8 °F 26.6 °F 75% 29.61 in 10.0 mi West 10.4 mph - N/A   Overcast
5:15 AM 33.8 °F 25.3 °F 26.6 °F 75% 29.61 in 8.0 mi West 11.5 mph - N/A   Overcast
5:35 AM 32.0 °F 23.0 °F 28.4 °F 87% 29.63 in 8.0 mi WNW 11.5 mph 16.1 mph N/A   Overcast
5:55 AM 30.2 °F 17.1 °F 24.8 °F 80% 29.63 in 3.0 mi NW 21.9 mph 26.5 mph N/A   Overcast
6:15 AM 30.2 °F 18.9 °F 24.8 °F 80% 29.65 in 10.0 mi WNW 16.1 mph 27.6 mph N/A   Overcast
6:55 AM 28.4 °F 15.8 °F 21.2 °F 74% 29.67 in 10.0 mi NW 18.4 mph 24.2 mph N/A   Overcast
7:15 AM 28.4 °F 15.4 °F 21.2 °F 74% 29.68 in 10.0 mi NW 19.6 mph 26.5 mph N/A   Overcast
7:35 AM 28.4 °F 16.2 °F 21.2 °F 74% 29.68 in 10.0 mi WNW 17.3 mph 21.9 mph N/A   Overcast
7:55 AM 28.4 °F 15.1 °F 21.2 °F 74% 29.69 in 10.0 mi NW 20.7 mph 28.8 mph N/A   Overcast
8:55 AM 26.6 °F 14.7 °F 21.2 °F 80% 29.74 in 10.0 mi NW 15.0 mph 23.0 mph N/A   Overcast
9:15 AM 26.6 °F 13.4 °F 19.4 °F 74% 29.75 in 10.0 mi NW 18.4 mph 27.6 mph N/A   Overcast
9:35 AM 26.6 °F 12.0 °F 17.6 °F 69% 29.76 in 10.0 mi NW 23.0 mph 29.9 mph N/A   Overcast
9:55 AM 26.6 °F 11.4 °F 17.6 °F 69% 29.78 in 10.0 mi WNW 25.3 mph 29.9 mph N/A   Overcast
10:15 AM 26.6 °F 12.4 °F 17.6 °F 69% 29.79 in 10.0 mi WNW 21.9 mph 28.8 mph N/A   Overcast
10:35 AM 24.8 °F 9.3 °F 17.6 °F 74% 29.80 in 10.0 mi NW 24.2 mph 29.9 mph N/A   Overcast
10:55 AM 24.8 °F 10.7 °F 15.8 °F 69% 29.82 in 10.0 mi WNW 19.6 mph 26.5 mph N/A   Overcast
11:15 AM 24.8 °F 9.6 °F 15.8 °F 69% 29.84 in 9.0 mi WNW 23.0 mph 27.6 mph N/A   Overcast
11:35 AM 24.8 °F 11.9 °F 15.8 °F 69% 29.84 in 8.0 mi WNW 16.1 mph 23.0 mph N/A   Overcast
11:55 AM 24.8 °F 10.3 °F 15.8 °F 69% 29.84 in 5.0 mi NW 20.7 mph 25.3 mph N/A   Overcast
12:15 PM 24.8 °F 10.7 °F 15.8 °F 69% 29.85 in 8.0 mi WNW 19.6 mph 28.8 mph N/A   Overcast
12:35 PM 24.8 °F 11.1 °F 14.0 °F 64% 29.85 in 8.0 mi WNW 18.4 mph 27.6 mph N/A   Overcast
12:55 PM 24.8 °F 10.7 °F 15.8 °F 69% 29.86 in 5.0 mi NW 19.6 mph 23.0 mph N/A   Overcast
1:15 PM 24.8 °F 11.1 °F 15.8 °F 69% 29.87 in 10.0 mi NW 18.4 mph 26.5 mph N/A   Overcast
1:55 PM 23.0 °F 8.3 °F 14.0 °F 68% 29.89 in 10.0 mi NW 19.6 mph 23.0 mph N/A   Overcast
2:15 PM 23.0 °F 10.6 °F 14.0 °F 68% 29.91 in 10.0 mi NW 13.8 mph 19.6 mph N/A   Overcast
2:35 PM 23.0 °F 9.2 °F 14.0 °F 68% 29.92 in 10.0 mi WNW 17.3 mph 21.9 mph N/A   Overcast
2:55 PM 23.0 °F 9.6 °F 15.8 °F 74% 29.92 in 10.0 mi WNW 16.1 mph 21.9 mph N/A   Overcast
3:15 PM 23.0 °F 10.1 °F 14.0 °F 68% 29.94 in 10.0 mi NW 15.0 mph - N/A   Overcast
3:35 PM 23.0 °F 11.1 °F 15.8 °F 74% 29.95 in 10.0 mi WNW 12.7 mph - N/A   Overcast
3:55 PM 23.0 °F 8.3 °F 15.8 °F 74% 29.95 in 10.0 mi WNW 19.6 mph 24.2 mph N/A   Overcast
4:35 PM 23.0 °F 11.1 °F 15.8 °F 74% 29.98 in 7.0 mi NW 12.7 mph - N/A   Overcast
4:55 PM 23.0 °F 12.4 °F 15.8 °F 74% 29.99 in 3.0 mi NW 10.4 mph - N/A   Overcast
5:15 PM 23.0 °F 11.1 °F 17.6 °F 80% 30.00 in 2.0 mi WNW 12.7 mph 16.1 mph N/A   Overcast
5:35 PM 23.0 °F 11.7 °F 17.6 °F 80% 30.01 in 3.0 mi WNW 11.5 mph 16.1 mph N/A   Overcast
6:35 PM 21.2 °F 7.8 °F 15.8 °F 80% 30.04 in 5.0 mi NW 15.0 mph 19.6 mph N/A   Overcast
6:55 PM 21.2 °F 10.1 °F 15.8 °F 80% 30.05 in 6.0 mi NW 10.4 mph - N/A   Overcast
7:15 PM 21.2 °F 9.5 °F 15.8 °F 80% 30.05 in 7.0 mi NW 11.5 mph - N/A   Overcast
7:35 PM 21.2 °F 9.5 °F 15.8 °F 80% 30.07 in 4.0 mi NW 11.5 mph - N/A   Overcast
7:55 PM 21.2 °F 10.1 °F 15.8 °F 80% 30.07 in 3.0 mi NW 10.4 mph - N/A   Overcast
8:15 PM 21.2 °F 10.9 °F 15.8 °F 80% 30.08 in 5.0 mi NW 9.2 mph - N/A   Overcast
8:35 PM 21.2 °F 12.6 °F 15.8 °F 80% 30.09 in 5.0 mi NNW 6.9 mph - N/A   Overcast
8:55 PM 21.2 °F 9.5 °F 15.8 °F 80% 30.09 in 5.0 mi NNW 11.5 mph - N/A   Overcast
9:15 PM 21.2 °F 10.1 °F 14.0 °F 74% 30.10 in 8.0 mi NNW 10.4 mph - N/A   Overcast
10:15 PM 19.4 °F 10.4 °F 12.2 °F 74% 30.12 in 10.0 mi NW 6.9 mph - N/A   Overcast
10:35 PM 19.4 °F 12.8 °F 14.0 °F 80% 30.13 in 10.0 mi West 4.6 mph - N/A   Overcast
10:55 PM 19.4 °F 12.8 °F 14.0 °F 80% 30.14 in 10.0 mi NNE 4.6 mph - N/A   Overcast
11:15 PM 17.6 °F 10.7 °F 10.4 °F 73% 30.14 in 9.0 mi NE 4.6 mph - N/A   Overcast
11:35 PM 17.6 °F 8.2 °F 10.4 °F 73% 30.14 in 9.0 mi NE 6.9 mph - N/A   Overcast
11:55 PM 15.8 °F 10.2 °F 8.6 °F 73% 30.15 in 10.0 mi NE 3.5 mph - N/A   Overcast